Location: Baia Mare
(47.6567°N, 23.5850°E)
Time: 22:32:38
(UTC+03:00)

ISS - Pass Details

Date: 03 June 2018
Orbit: 403 x 408 km, 51.6° (Epoch: 26 September)

Event Time Altitude Azimuth Distance (km) Brightness Sun altitude
Rises 23:57:09 0° 289° (WNW) 2,326 0.6 -17.4°
Reaches altitude 10° 23:59:30 10° 274° (W) 1,461 -0.7 -17.6°
Enters shadow 00:01:40 22° 234° (SW) 934 -2.2 -17.7°
